This is the latest recevied weather packets stored in our database for station/object K1JO. If no packets are shown the sender has not sent any weather packets the latest 10 day(s).
| Time | Temp. | Humidity | Pressure | Rain* | Wind** | Luminosity | Snow |
|---|---|---|---|---|---|---|---|
| 1778017688 | 16.67° C | 69% | 1000.5 hPa | 0 mm | - | 93 W/m² | - |
| 1778017385 | 17.22° C | 69% | 1000.3 hPa | 0 mm | - | 102 W/m² | - |
| 1778017082 | 17.22° C | 69% | 1000.5 hPa | 0 mm | - | 125 W/m² | - |
| 1778016780 | 17.22° C | 68% | 1000.3 hPa | 0 mm | - | 142 W/m² | - |
| 1778016475 | 17.78° C | 68% | 1000.4 hPa | 0 mm | - | 183 W/m² | - |
| 1778016173 | 18.33° C | 67% | 1000.3 hPa | 0 mm | - | 204 W/m² | - |
| 1778015870 | 18.33° C | 67% | 1000.3 hPa | 0 mm | - | 181 W/m² | - |
| 1778015567 | 18.33° C | 67% | 1000.2 hPa | 0 mm | - | 182 W/m² | - |
| 1778015263 | 18.89° C | 67% | 1000.4 hPa | 0 mm | - | 223 W/m² | - |
| 1778014960 | 18.89° C | 65% | 1000.2 hPa | 0 mm | - | 260 W/m² | - |
| 1778014658 | 18.89° C | 65% | 1000.2 hPa | 0 mm | - | 312 W/m² | - |
| 1778014356 | 19.44° C | 63% | 1000.2 hPa | 0 mm | - | 188 W/m² | - |
| 1778014052 | 19.44° C | 63% | 1000.3 hPa | 0 mm | - | 232 W/m² | - |
| 1778013750 | 20° C | 62% | 1000.1 hPa | 0 mm | - | 281 W/m² | - |
| 1778013447 | 20.56° C | 61% | 1000.3 hPa | 0 mm | - | 326 W/m² | - |
| 1778013144 | 20.56° C | 62% | 1000.3 hPa | 0 mm | - | 261 W/m² | - |
| 1778012839 | 20° C | 62% | 1000.1 hPa | 0 mm | - | 376 W/m² | - |
| 1778012536 | 20° C | 62% | 1000.2 hPa | 0 mm | - | 300 W/m² | - |
| 1778012232 | 20.56° C | 61% | 1000.4 hPa | 0 mm | - | 301 W/m² | - |
| 1778011930 | 20.56° C | 61% | 1000.4 hPa | 0 mm | - | 387 W/m² | - |
| 1778011628 | 21.11° C | 59% | 1000.6 hPa | 0 mm | - | 416 W/m² | - |
| 1778011325 | 21.11° C | 60% | 1000.7 hPa | 0 mm | - | 357 W/m² | - |
| 1778011021 | 21.11° C | 59% | 1000.5 hPa | 0 mm | - | 450 W/m² | - |
| 1778010718 | 20.56° C | 62% | 1000.7 hPa | 0 mm | - | 440 W/m² | - |
| 1778010415 | 20.56° C | 61% | 1000.8 hPa | 0 mm | - | 466 W/m² | - |
* Rain latest hour (hover to see other rain measurements)
** Current wind speed in m/s (hover to see current wind gust speed)